Satellite: NOAA-12 Catalog number: 21263 Epoch time: 08031.42041136 Element set: 528 Inclination: 098.7649 deg RA of node: 033.4017 deg Eccentricity: 0.0012841 Arg of perigee: 162.0652 deg Mean anomaly: 198.0994 deg Mean motion: 14.25513798 rev/day Decay rate: -8.4e-07 rev/day^2 Epoch rev: 86876 Checksum: 308
Satellite: MET-3/5 Catalog number: 21655 Epoch time: 08030.92892448 Element set: 0388 Inclination: 082.5496 deg RA of node: 202.0314 deg Eccentricity: 0.0013829 Arg of perigee: 003.8399 deg Mean anomaly: 356.2822 deg Mean motion: 13.17014144 rev/day Decay rate: 5.1e-07 rev/day^2 Epoch rev: 79138 Checksum: 303
Satellite: MET-2/21 Catalog number: 22782 Epoch time: 08030.65470348 Element set: 0052 Inclination: 082.5444 deg RA of node: 221.4518 deg Eccentricity: 0.0021743 Arg of perigee: 321.8306 deg Mean anomaly: 038.1310 deg Mean motion: 13.83624778 rev/day Decay rate: -1.0e-07 rev/day^2 Epoch rev: 72797 Checksum: 281
Satellite: OKEAN-4 Catalog number: 23317 Epoch time: 08030.83552546 Element set: 0494 Inclination: 082.5368 deg RA of node: 084.1675 deg Eccentricity: 0.0020849 Arg of perigee: 219.7798 deg Mean anomaly: 140.1898 deg Mean motion: 14.82573371 rev/day Decay rate: 4.0e-07 rev/day^2 Epoch rev: 71778 Checksum: 332
Satellite: NOAA-14 Catalog number: 23455 Epoch time: 08030.83126586 Element set: 0000 Inclination: 098.9618 deg RA of node: 102.9134 deg Eccentricity: 0.0009709 Arg of perigee: 171.6798 deg Mean anomaly: 188.4546 deg Mean motion: 14.13733311 rev/day Decay rate: -3.1e-07 rev/day^2 Epoch rev: 67480 Checksum: 303
Satellite: SICH-1 Catalog number: 23657 Epoch time: 08030.83048954 Element set: 292 Inclination: 082.5248 deg RA of node: 225.1090 deg Eccentricity: 0.0022853 Arg of perigee: 211.7328 deg Mean anomaly: 148.2501 deg Mean motion: 14.81546218 rev/day Decay rate: -5.5e-07 rev/day^2 Epoch rev: 66973 Checksum: 295
Satellite: NOAA-15 Catalog number: 25338 Epoch time: 08031.42500416 Element set: 336 Inclination: 098.5471 deg RA of node: 026.8439 deg Eccentricity: 0.0011603 Arg of perigee: 084.2351 deg Mean anomaly: 276.0141 deg Mean motion: 14.24684431 rev/day Decay rate: 8.9e-07 rev/day^2 Epoch rev: 50518 Checksum: 278
Satellite: RESURS Catalog number: 25394 Epoch time: 08030.70244836 Element set: 0847 Inclination: 098.4069 deg RA of node: 080.8368 deg Eccentricity: 0.0000618 Arg of perigee: 246.3842 deg Mean anomaly: 113.7272 deg Mean motion: 14.24152739 rev/day Decay rate: -2.6e-07 rev/day^2 Epoch rev: 49673 Checksum: 309
Satellite: FENGYUN1 Catalog number: 25730 Epoch time: 08030.95416155 Element set: 0381 Inclination: 098.7128 deg RA of node: 011.4759 deg Eccentricity: 0.0020554 Arg of perigee: 198.2900 deg Mean anomaly: 161.7532 deg Mean motion: 14.07673326 rev/day Decay rate: 1.18e-06 rev/day^2 Epoch rev: 44951 Checksum: 290
Satellite: OKEAN-0 Catalog number: 25860 Epoch time: 08030.51976186 Element set: 0278 Inclination: 097.7416 deg RA of node: 027.2691 deg Eccentricity: 0.0001572 Arg of perigee: 047.9941 deg Mean anomaly: 312.1398 deg Mean motion: 14.73499234 rev/day Decay rate: 1.8e-07 rev/day^2 Epoch rev: 45897 Checksum: 328
Satellite: NOAA-16 Catalog number: 26536 Epoch time: 08031.42962261 Element set: 786 Inclination: 099.1464 deg RA of node: 017.6657 deg Eccentricity: 0.0009823 Arg of perigee: 251.3192 deg Mean anomaly: 108.6907 deg Mean motion: 14.12468651 rev/day Decay rate: 2.12e-06 rev/day^2 Epoch rev: 37932 Checksum: 312
Satellite: NOAA-17 Catalog number: 27453 Epoch time: 08030.83825805 Element set: 0784 Inclination: 098.5526 deg RA of node: 099.3710 deg Eccentricity: 0.0012436 Arg of perigee: 148.3088 deg Mean anomaly: 211.8825 deg Mean motion: 14.23945118 rev/day Decay rate: 1.7e-07 rev/day^2 Epoch rev: 29111 Checksum: 308
Satellite: NOAA-18 Catalog number: 28654 Epoch time: 08030.86185160 Element set: 0294 Inclination: 098.8543 deg RA of node: 333.5949 deg Eccentricity: 0.0014421 Arg of perigee: 348.6134 deg Mean anomaly: 011.4713 deg Mean motion: 14.11132156 rev/day Decay rate: -1.45e-06 rev/day^2 Epoch rev: 13896 Checksum: 299
/EX SB KEPS @ AMSAT $ORB08031.M Orbital Elements 08031.MISC
HR AMSAT ORBITAL ELEMENTS FOR MANNED AND MISCELLANEOUS SATELLITES FROM WA5QGD FORT WORTH,TX January 31, 2008 Send Subscribe/unsubscribe to KEPS at http://www.amsat.org/mailman/listinfo/keps BID: ORB08031.M TO ALL RADIO AMATEURS BT
Satellite: HUBBLE Catalog number: 20580 Epoch time: 08030.64986272 Element set: 0068 Inclination: 028.4670 deg RA of node: 146.7591 deg Eccentricity: 0.0003217 Arg of perigee: 355.4675 deg Mean anomaly: 004.5883 deg Mean motion: 15.00331414 rev/day Decay rate: 3.05e-06 rev/day^2 Epoch rev: 77415 Checksum: 283
Satellite: UARS Catalog number: 21701 Epoch time: 08030.54075289 Element set: 0296 Inclination: 056.9753 deg RA of node: 045.7782 deg Eccentricity: 0.0080955 Arg of perigee: 272.0861 deg Mean anomaly: 087.0927 deg Mean motion: 15.50401113 rev/day Decay rate: 3.855e-05 rev/day^2 Epoch rev: 90098 Checksum: 309
Satellite: PO-34 Catalog number: 25520 Epoch time: 08030.33277061 Element set: 0924 Inclination: 028.4608 deg RA of node: 028.3490 deg Eccentricity: 0.0005776 Arg of perigee: 209.2706 deg Mean anomaly: 150.7564 deg Mean motion: 15.17123253 rev/day Decay rate: 3.40e-06 rev/day^2 Epoch rev: 51205 Checksum: 269
Satellite: ISS Catalog number: 25544 Epoch time: 08032.07775766 Element set: 828 Inclination: 051.6429 deg RA of node: 003.3475 deg Eccentricity: 0.0005874 Arg of perigee: 004.6241 deg Mean anomaly: 044.5090 deg Mean motion: 15.77753168 rev/day Decay rate: 2.5213e-04 rev/day^2 Epoch rev: 52689 Checksum: 308
Satellite: OO-38 Catalog number: 26063 Epoch time: 08031.80490561 Element set: 125 Inclination: 100.2110 deg RA of node: 081.5081 deg Eccentricity: 0.0036627 Arg of perigee: 236.2039 deg Mean anomaly: 123.5648 deg Mean motion: 14.35826239 rev/day Decay rate: -4.0e-07 rev/day^2 Epoch rev: 41985 Checksum: 273
Satellite: UWE-1 Catalog number: 28892 Epoch time: 08030.26600794 Element set: 0963 Inclination: 098.1107 deg RA of node: 287.1064 deg Eccentricity: 0.0018268 Arg of perigee: 121.4888 deg Mean anomaly: 238.8083 deg Mean motion: 14.59587054 rev/day Decay rate: 1.0e-08 rev/day^2 Epoch rev: 12033 Checksum: 306
Satellite: CO-58 Catalog number: 28895 Epoch time: 08029.41523674 Element set: 0936 Inclination: 098.1153 deg RA of node: 286.5757 deg Eccentricity: 0.0018948 Arg of perigee: 124.5116 deg Mean anomaly: 235.7860 deg Mean motion: 14.59629300 rev/day Decay rate: 6.9e-07 rev/day^2 Epoch rev: 12009 Checksum: 339
Satellite: NCUBE2 Catalog number: 28897 Epoch time: 08031.65788334 Element set: 466 Inclination: 098.1132 deg RA of node: 288.7095 deg Eccentricity: 0.0018058 Arg of perigee: 118.5209 deg Mean anomaly: 241.7816 deg Mean motion: 14.59798091 rev/day Decay rate: 1.08e-06 rev/day^2 Epoch rev: 11270 Checksum: 330
Satellite: FCAL Catalog number: 29667 Epoch time: 08031.89902088 Element set: 718 Inclination: 051.6328 deg RA of node: 326.0199 deg Eccentricity: 0.0009476 Arg of perigee: 154.3357 deg Mean anomaly: 205.8100 deg Mean motion: 16.00293170 rev/day Decay rate: 3.2361e-04 rev/day^2 Epoch rev: 6446 Checksum: 298
Satellite: FALCON Catalog number: 30776 Epoch time: 08031.86440029 Element set: 238 Inclination: 035.4342 deg RA of node: 266.2538 deg Eccentricity: 0.0001904 Arg of perigee: 291.0767 deg Mean anomaly: 068.9749 deg Mean motion: 15.02866423 rev/day Decay rate: 3.08e-06 rev/day^2 Epoch rev: 4947 Checksum: 304
Satellite: MAST Catalog number: 31126 Epoch time: 08030.24469176 Element set: 0244 Inclination: 098.0565 deg RA of node: 100.1248 deg Eccentricity: 0.0095655 Arg of perigee: 042.8864 deg Mean anomaly: 317.9760 deg Mean motion: 14.53396112 rev/day Decay rate: 5.7e-07 rev/day^2 Epoch rev: 04183 Checksum: 290
Satellite: CAPE1 Catalog number: 31130 Epoch time: 08030.95138172 Element set: 0230 Inclination: 098.0598 deg RA of node: 100.1330 deg Eccentricity: 0.0103760 Arg of perigee: 042.6733 deg Mean anomaly: 318.2467 deg Mean motion: 14.51926239 rev/day Decay rate: 2.2e-07 rev/day^2 Epoch rev: 04166 Checksum: 254
/EX